owner,sensor,date,latitude,longitude,vertical_datum,sea_water_temperature,qcFlag
BP,ioos:station:wmo:42369:3,2020-11-01T00:00:00Z,27.2127,-90.2883,468.6,64.0,11144222
BP,ioos:station:wmo:42369:3,2020-11-01T00:20:00Z,27.2128,-90.2881,468.2,64.1,11144222
BP,ioos:station:wmo:42369:3,2020-11-01T00:40:00Z,27.2129,-90.2879,466.7,64.1,11144222
BP,ioos:station:wmo:42369:3,2020-11-01T01:00:00Z,27.2130,-90.2877,465.2,64.1,11144222
BP,ioos:station:wmo:42369:3,2020-11-01T01:20:00Z,27.2129,-90.2876,464.3,64.1,11144222
BP,ioos:station:wmo:42369:3,2020-11-01T01:40:00Z,27.2129,-90.2876,463.8,64.1,11144222
BP,ioos:station:wmo:42369:3,2020-11-01T02:00:00Z,27.2129,-90.2875,461.4,64.1,11144222
BP,ioos:station:wmo:42369:3,2020-11-01T02:20:00Z,27.2128,-90.2875,461.5,64.1,11144222
BP,ioos:station:wmo:42369:3,2020-11-01T02:40:00Z,27.2127,-90.2876,461.4,64.1,11144222
BP,ioos:station:wmo:42369:3,2020-11-01T03:00:00Z,27.2127,-90.2876,461.3,64.1,11144222
BP,ioos:station:wmo:42369:3,2020-11-01T03:20:00Z,27.2125,-90.2878,460.5,64.1,11144222
BP,ioos:station:wmo:42369:3,2020-11-01T03:40:00Z,27.2124,-90.2879,459.1,64.1,11144222
BP,ioos:station:wmo:42369:3,2020-11-01T04:00:00Z,27.2122,-90.2880,460.1,64.1,11144222
BP,ioos:station:wmo:42369:3,2020-11-01T04:20:00Z,27.2119,-90.2882,458.9,64.1,11144222
BP,ioos:station:wmo:42369:3,2020-11-01T04:40:00Z,27.2117,-90.2885,458.6,64.1,11144222
BP,ioos:station:wmo:42369:3,2020-11-01T05:00:00Z,27.2112,-90.2888,458.6,64.1,11144222
BP,ioos:station:wmo:42369:3,2020-11-01T05:20:00Z,27.2112,-90.2888,459.2,64.1,11144222
BP,ioos:station:wmo:42369:3,2020-11-01T05:40:00Z,27.2110,-90.2889,458.5,64.1,11144222
BP,ioos:station:wmo:42369:3,2020-11-01T06:00:00Z,27.2109,-90.2889,457.7,64.1,11144222
BP,ioos:station:wmo:42369:3,2020-11-01T06:20:00Z,27.2107,-90.2890,456.1,64.1,11144222
BP,ioos:station:wmo:42369:3,2020-11-01T06:40:00Z,27.2105,-90.2892,456.8,64.1,11144222
BP,ioos:station:wmo:42369:3,2020-11-01T07:00:00Z,27.2102,-90.2893,456.4,64.1,11144222
BP,ioos:station:wmo:42369:3,2020-11-01T09:00:00Z,27.2083,-90.2901,455.7,64.1,11144222
BP,ioos:station:wmo:42369:3,2020-11-01T07:20:00Z,27.2100,-90.2895,456.2,64.2,11144222
BP,ioos:station:wmo:42369:3,2020-11-01T07:40:00Z,27.2097,-90.2896,455.8,64.1,11144222
BP,ioos:station:wmo:42369:3,2020-11-01T08:00:00Z,27.2093,-90.2898,455.6,64.1,11144222
BP,ioos:station:wmo:42369:3,2020-11-01T08:20:00Z,27.2090,-90.2899,454.9,64.1,11144222
BP,ioos:station:wmo:42369:3,2020-11-01T08:40:00Z,27.2086,-90.2900,455.1,64.1,11144222
BP,ioos:station:wmo:42369:3,2020-11-01T09:20:00Z,27.2082,-90.2902,455.9,64.2,11144222
BP,ioos:station:wmo:42369:3,2020-11-01T09:40:00Z,27.2080,-90.2902,456.2,64.1,11144222
BP,ioos:station:wmo:42369:3,2020-11-01T10:00:00Z,27.2079,-90.2902,456.8,64.1,11144222
BP,ioos:station:wmo:42369:3,2020-11-01T10:20:00Z,27.2080,-90.2902,458.1,64.1,11144222
BP,ioos:station:wmo:42369:3,2020-11-01T10:40:00Z,27.2082,-90.2903,459.5,64.1,11144222
BP,ioos:station:wmo:42369:3,2020-11-01T11:00:00Z,27.2085,-90.2904,461.3,64.1,11144222
BP,ioos:station:wmo:42369:3,2020-11-01T11:20:00Z,27.2087,-90.2904,462.4,64.1,11144222
BP,ioos:station:wmo:42369:3,2020-11-01T11:40:00Z,27.2092,-90.2907,467.5,64.2,11144222
BP,ioos:station:wmo:42369:3,2020-11-01T12:00:00Z,27.2096,-90.2909,472.4,64.2,11144222
BP,ioos:station:wmo:42369:3,2020-11-01T12:20:00Z,27.2098,-90.2910,478.4,64.1,11144222
BP,ioos:station:wmo:42369:3,2020-11-01T12:40:00Z,27.2095,-90.2908,476.7,64.1,11144222
BP,ioos:station:wmo:42369:3,2020-11-01T13:00:00Z,27.2092,-90.2902,473.1,64.1,11144222
BP,ioos:station:wmo:42369:3,2020-11-01T13:20:00Z,27.2091,-90.2900,470.2,64.1,11144222
BP,ioos:station:wmo:42369:3,2020-11-01T13:40:00Z,27.2093,-90.2899,471.0,64.1,11144222
BP,ioos:station:wmo:42369:3,2020-11-01T14:00:00Z,27.2094,-90.2899,473.1,64.2,11144222
BP,ioos:station:wmo:42369:3,2020-11-01T14:20:00Z,27.2097,-90.2898,475.1,64.1,11144222
BP,ioos:station:wmo:42369:3,2020-11-01T14:40:00Z,27.2098,-90.2898,477.0,64.1,11144222
BP,ioos:station:wmo:42369:3,2020-11-01T15:00:00Z,27.2100,-90.2897,478.3,64.1,11144222
BP,ioos:station:wmo:42369:3,2020-11-01T15:20:00Z,27.2102,-90.2897,478.6,64.1,11144222
BP,ioos:station:wmo:42369:3,2020-11-01T15:40:00Z,27.2103,-90.2896,479.3,64.1,11144222
BP,ioos:station:wmo:42369:3,2020-11-01T16:00:00Z,27.2104,-90.2896,479.0,64.1,11144222
BP,ioos:station:wmo:42369:3,2020-11-01T16:20:00Z,27.2106,-90.2895,479.8,64.1,11144222
BP,ioos:station:wmo:42369:3,2020-11-01T16:40:00Z,27.2108,-90.2894,479.0,64.1,11144222
BP,ioos:station:wmo:42369:3,2020-11-01T17:00:00Z,27.2109,-90.2893,479.1,64.1,11144222
BP,ioos:station:wmo:42369:3,2020-11-01T17:20:00Z,27.2111,-90.2892,480.1,64.2,11144222
BP,ioos:station:wmo:42369:3,2020-11-01T17:40:00Z,27.2112,-90.2892,480.8,64.2,11144222
BP,ioos:station:wmo:42369:3,2020-11-01T18:00:00Z,27.2113,-90.2892,479.4,64.2,11144222
BP,ioos:station:wmo:42369:3,2020-11-01T18:20:00Z,27.2114,-90.2892,479.8,64.2,11144222
BP,ioos:station:wmo:42369:3,2020-11-01T18:40:00Z,27.2114,-90.2891,479.5,64.2,11144222
BP,ioos:station:wmo:42369:3,2020-11-01T19:00:00Z,27.2115,-90.2891,477.1,64.1,11144222
BP,ioos:station:wmo:42369:3,2020-11-01T19:20:00Z,27.2116,-90.2891,476.2,64.2,11144222
BP,ioos:station:wmo:42369:3,2020-11-01T19:40:00Z,27.2116,-90.2891,476.3,64.2,11144222
BP,ioos:station:wmo:42369:3,2020-11-01T20:00:00Z,27.2117,-90.2889,475.7,64.1,11144222
BP,ioos:station:wmo:42369:3,2020-11-01T20:20:00Z,27.2118,-90.2889,475.1,64.1,11144222
BP,ioos:station:wmo:42369:3,2020-11-01T20:40:00Z,27.2118,-90.2889,474.3,64.2,11144222
BP,ioos:station:wmo:42369:3,2020-11-01T21:00:00Z,27.2118,-90.2889,474.1,64.1,11144222
BP,ioos:station:wmo:42369:3,2020-11-01T21:40:00Z,27.2118,-90.2889,473.4,64.1,11144222
BP,ioos:station:wmo:42369:3,2020-11-01T21:20:00Z,27.2119,-90.2888,474.1,64.1,11144222
BP,ioos:station:wmo:42369:3,2020-11-01T22:00:00Z,27.2120,-90.2888,475.4,64.2,11144222
BP,ioos:station:wmo:42369:3,2020-11-02T00:00:00Z,27.2123,-90.2882,468.9,64.2,11144222
BP,ioos:station:wmo:42369:3,2020-11-01T22:20:00Z,27.2120,-90.2888,472.9,64.2,11144222
BP,ioos:station:wmo:42369:3,2020-11-01T22:40:00Z,27.2121,-90.2886,472.3,64.2,11144222
BP,ioos:station:wmo:42369:3,2020-11-01T23:00:00Z,27.2122,-90.2885,471.0,64.2,11144222
BP,ioos:station:wmo:42369:3,2020-11-01T23:20:00Z,27.2122,-90.2884,469.8,64.2,11144222
BP,ioos:station:wmo:42369:3,2020-11-01T23:40:00Z,27.2123,-90.2883,468.6,64.2,11144222
BP,ioos:station:wmo:42369:3,2020-11-02T00:20:00Z,27.2123,-90.2882,468.0,64.2,11144222
BP,ioos:station:wmo:42369:3,2020-11-02T00:40:00Z,27.2123,-90.2882,466.1,64.2,11144222
BP,ioos:station:wmo:42369:3,2020-11-02T01:00:00Z,27.2123,-90.2882,466.7,64.1,11144222
BP,ioos:station:wmo:42369:3,2020-11-02T01:20:00Z,27.2123,-90.2882,466.9,64.1,11144222
BP,ioos:station:wmo:42369:3,2020-11-02T01:40:00Z,27.2123,-90.2882,467.9,64.1,11144222
BP,ioos:station:wmo:42369:3,2020-11-02T02:00:00Z,27.2124,-90.2882,467.1,64.1,11144222
BP,ioos:station:wmo:42369:3,2020-11-02T02:20:00Z,27.2123,-90.2882,465.6,64.1,11144222
BP,ioos:station:wmo:42369:3,2020-11-02T02:40:00Z,27.2123,-90.2882,464.5,64.1,11144222
BP,ioos:station:wmo:42369:3,2020-11-02T03:00:00Z,27.2123,-90.2882,464.6,64.1,11144222
BP,ioos:station:wmo:42369:3,2020-11-02T03:20:00Z,27.2123,-90.2883,465.0,64.0,11144222
BP,ioos:station:wmo:42369:3,2020-11-02T03:40:00Z,27.2122,-90.2884,464.0,64.0,11144222
BP,ioos:station:wmo:42369:3,2020-11-02T04:00:00Z,27.2121,-90.2885,464.6,64.0,11144222
BP,ioos:station:wmo:42369:3,2020-11-02T04:20:00Z,27.2119,-90.2887,463.1,64.0,11144222
BP,ioos:station:wmo:42369:3,2020-11-02T04:40:00Z,27.2118,-90.2888,462.7,64.0,11144222
BP,ioos:station:wmo:42369:3,2020-11-02T05:00:00Z,27.2116,-90.2890,461.8,64.0,11144222
BP,ioos:station:wmo:42369:3,2020-11-02T05:20:00Z,27.2114,-90.2893,462.0,64.0,11144222
BP,ioos:station:wmo:42369:3,2020-11-02T05:40:00Z,27.2114,-90.2893,461.7,64.1,11144222
BP,ioos:station:wmo:42369:3,2020-11-02T06:00:00Z,27.2109,-90.2898,462.1,64.0,11144222
BP,ioos:station:wmo:42369:3,2020-11-02T09:00:00Z,27.2082,-90.2909,455.2,64.0,11144222
BP,ioos:station:wmo:42369:3,2020-11-02T06:40:00Z,27.2078,-90.2909,460.3,64.0,11144222
BP,ioos:station:wmo:42369:3,2020-11-02T07:00:00Z,27.2077,-90.2909,461.3,64.0,11144222
BP,ioos:station:wmo:42369:3,2020-11-02T07:20:00Z,27.2075,-90.2910,460.2,64.0,11144222
BP,ioos:station:wmo:42369:3,2020-11-02T09:20:00Z,27.2079,-90.2909,455.7,64.0,11144222
BP,ioos:station:wmo:42369:3,2020-11-02T12:40:00Z,27.2075,-90.2904,460.8,64.2,11144222
BP,ioos:station:wmo:42369:3,2020-11-02T07:40:00Z,27.2073,-90.2910,459.8,64.0,11144222
BP,ioos:station:wmo:42369:3,2020-11-02T08:00:00Z,27.2072,-90.2910,458.5,64.0,11144222
BP,ioos:station:wmo:42369:3,2020-11-02T08:20:00Z,27.2071,-90.2910,457.1,64.0,11144222
BP,ioos:station:wmo:42369:3,2020-11-02T08:40:00Z,27.2071,-90.2910,455.6,64.0,11144222
BP,ioos:station:wmo:42369:3,2020-11-02T09:40:00Z,27.2074,-90.2910,456.1,64.0,11144222
BP,ioos:station:wmo:42369:3,2020-11-02T10:00:00Z,27.2072,-90.2910,456.7,64.1,11144222
BP,ioos:station:wmo:42369:3,2020-11-02T10:20:00Z,27.2070,-90.2909,455.5,64.1,11144222
BP,ioos:station:wmo:42369:3,2020-11-02T10:40:00Z,27.2070,-90.2908,456.2,64.1,11144222
BP,ioos:station:wmo:42369:3,2020-11-02T11:00:00Z,27.2069,-90.2907,457.5,64.2,11144222
BP,ioos:station:wmo:42369:3,2020-11-02T11:20:00Z,27.2068,-90.2907,458.3,64.2,11144222
BP,ioos:station:wmo:42369:3,2020-11-02T11:40:00Z,27.2070,-90.2905,457.5,64.2,11144222
BP,ioos:station:wmo:42369:3,2020-11-02T12:00:00Z,27.2071,-90.2904,458.8,64.2,11144222
BP,ioos:station:wmo:42369:3,2020-11-02T12:20:00Z,27.2073,-90.2905,459.4,64.2,11144222
BP,ioos:station:wmo:42369:3,2020-11-02T13:00:00Z,27.2077,-90.2903,462.0,64.2,11144222
BP,ioos:station:wmo:42369:3,2020-11-02T15:00:00Z,27.2094,-90.2897,471.4,64.3,11144222
BP,ioos:station:wmo:42369:3,2020-11-02T13:20:00Z,27.2080,-90.2903,461.3,64.2,11144222
BP,ioos:station:wmo:42369:3,2020-11-02T13:40:00Z,27.2083,-90.2902,463.2,64.2,11144222
BP,ioos:station:wmo:42369:3,2020-11-02T14:00:00Z,27.2085,-90.2901,465.5,64.2,11144222
BP,ioos:station:wmo:42369:3,2020-11-02T14:20:00Z,27.2089,-90.2900,466.6,64.2,11144222
BP,ioos:station:wmo:42369:3,2020-11-02T14:40:00Z,27.2092,-90.2898,468.9,64.2,11144222
BP,ioos:station:wmo:42369:3,2020-11-02T15:20:00Z,27.2097,-90.2896,473.1,64.3,11144222
BP,ioos:station:wmo:42369:3,2020-11-02T15:40:00Z,27.2099,-90.2895,474.6,64.2,11144222
BP,ioos:station:wmo:42369:3,2020-11-02T16:00:00Z,27.2100,-90.2894,473.6,64.3,11144222
BP,ioos:station:wmo:42369:3,2020-11-02T16:20:00Z,27.2101,-90.2894,474.5,64.3,11144222
BP,ioos:station:wmo:42369:3,2020-11-02T16:40:00Z,27.2103,-90.2893,477.0,64.3,11144222
BP,ioos:station:wmo:42369:3,2020-11-02T17:00:00Z,27.2104,-90.2891,476.2,64.3,11144222
BP,ioos:station:wmo:42369:3,2020-11-02T17:20:00Z,27.2105,-90.2890,477.6,64.3,11144222
BP,ioos:station:wmo:42369:3,2020-11-02T18:00:00Z,27.2107,-90.2887,478.0,64.3,11144222
BP,ioos:station:wmo:42369:3,2020-11-02T17:40:00Z,27.2106,-90.2888,479.0,64.3,11144222
BP,ioos:station:wmo:42369:3,2020-11-02T18:20:00Z,27.2108,-90.2887,478.3,64.3,11144222
BP,ioos:station:wmo:42369:3,2020-11-02T18:40:00Z,27.2109,-90.2886,477.9,64.3,11144222
BP,ioos:station:wmo:42369:3,2020-11-02T19:00:00Z,27.2108,-90.2886,476.0,64.3,11144222
BP,ioos:station:wmo:42369:3,2020-11-02T19:20:00Z,27.2109,-90.2885,475.8,64.3,11144222
BP,ioos:station:wmo:42369:3,2020-11-02T19:40:00Z,27.2109,-90.2885,473.9,64.3,11144222
BP,ioos:station:wmo:42369:3,2020-11-02T20:00:00Z,27.2110,-90.2884,473.8,64.3,11144222
BP,ioos:station:wmo:42369:3,2020-11-02T20:20:00Z,27.2110,-90.2882,473.0,64.3,11144222
BP,ioos:station:wmo:42369:3,2020-11-02T20:40:00Z,27.2112,-90.2880,473.4,64.3,11144222
BP,ioos:station:wmo:42369:3,2020-11-02T21:00:00Z,27.2113,-90.2878,473.6,64.3,11144222
BP,ioos:station:wmo:42369:3,2020-11-02T21:20:00Z,27.2113,-90.2876,473.1,64.3,11144222
BP,ioos:station:wmo:42369:3,2020-11-02T21:40:00Z,27.2115,-90.2874,471.0,64.3,11144222
BP,ioos:station:wmo:42369:3,2020-11-02T22:00:00Z,27.2116,-90.2872,471.4,64.3,11144222
BP,ioos:station:wmo:42369:3,2020-11-02T22:20:00Z,27.2117,-90.2870,470.3,64.3,11144222
BP,ioos:station:wmo:42369:3,2020-11-02T22:40:00Z,27.2118,-90.2869,470.0,64.3,11144222
BP,ioos:station:wmo:42369:3,2020-11-02T23:00:00Z,27.2119,-90.2867,470.3,64.3,11144222
BP,ioos:station:wmo:42369:3,2020-11-02T23:20:00Z,27.2119,-90.2866,468.5,64.3,11144222
BP,ioos:station:wmo:42369:3,2020-11-02T23:40:00Z,27.2120,-90.2865,467.4,64.3,11144222
BP,ioos:station:wmo:42369:3,2020-11-03T00:00:00Z,27.2121,-90.2864,467.2,64.3,11144222
BP,ioos:station:wmo:42369:3,2020-11-03T00:20:00Z,27.2122,-90.2863,468.1,64.3,11144222
BP,ioos:station:wmo:42369:3,2020-11-03T00:40:00Z,27.2123,-90.2863,465.9,64.3,11144222
BP,ioos:station:wmo:42369:3,2020-11-03T01:00:00Z,27.2123,-90.2862,466.0,64.2,11144222
BP,ioos:station:wmo:42369:3,2020-11-03T01:20:00Z,27.2123,-90.2862,464.3,64.2,11144222
BP,ioos:station:wmo:42369:3,2020-11-03T01:40:00Z,27.2123,-90.2863,462.7,64.1,11144222
BP,ioos:station:wmo:42369:3,2020-11-03T02:00:00Z,27.2123,-90.2864,461.7,64.1,11144222
BP,ioos:station:wmo:42369:3,2020-11-03T02:20:00Z,27.2123,-90.2865,461.6,64.1,11144222
BP,ioos:station:wmo:42369:3,2020-11-03T03:00:00Z,27.2123,-90.2866,461.0,64.1,11144222
BP,ioos:station:wmo:42369:3,2020-11-03T02:40:00Z,27.2123,-90.2866,461.2,64.1,11144222
BP,ioos:station:wmo:42369:3,2020-11-03T03:20:00Z,27.2123,-90.2868,460.5,64.1,11144222
BP,ioos:station:wmo:42369:3,2020-11-03T03:40:00Z,27.2123,-90.2870,460.2,64.1,11144222
BP,ioos:station:wmo:42369:3,2020-11-03T04:00:00Z,27.2123,-90.2872,459.9,64.1,11144222
BP,ioos:station:wmo:42369:3,2020-11-03T04:20:00Z,27.2124,-90.2872,460.4,64.1,11144222
BP,ioos:station:wmo:42369:3,2020-11-03T04:40:00Z,27.2124,-90.2873,459.8,64.1,11144222
BP,ioos:station:wmo:42369:3,2020-11-03T05:00:00Z,27.2124,-90.2875,460.8,64.1,11144222
BP,ioos:station:wmo:42369:3,2020-11-03T05:20:00Z,27.2123,-90.2876,459.2,64.1,11144222
BP,ioos:station:wmo:42369:3,2020-11-03T05:40:00Z,27.2122,-90.2877,458.8,64.1,11144222
BP,ioos:station:wmo:42369:3,2020-11-03T11:40:00Z,27.2082,-90.2907,455.5,64.1,11144222
BP,ioos:station:wmo:42369:3,2020-11-03T12:00:00Z,27.2079,-90.2908,454.4,64.1,11144222
BP,ioos:station:wmo:42369:3,2020-11-03T12:20:00Z,27.2076,-90.2908,453.9,64.1,11144222
BP,ioos:station:wmo:42369:3,2020-11-03T12:40:00Z,27.2073,-90.2908,454.1,64.1,11144222
BP,ioos:station:wmo:42369:3,2020-11-03T13:00:00Z,27.2070,-90.2908,454.8,64.1,11144222
BP,ioos:station:wmo:42369:3,2020-11-03T13:20:00Z,27.2068,-90.2907,455.0,64.1,11144222
BP,ioos:station:wmo:42369:3,2020-11-03T13:40:00Z,27.2068,-90.2905,455.7,64.1,11144222
BP,ioos:station:wmo:42369:3,2020-11-03T15:00:00Z,27.2076,-90.2901,459.3,64.2,11144222
BP,ioos:station:wmo:42369:3,2020-11-03T14:00:00Z,27.2069,-90.2904,456.8,64.1,11144222
BP,ioos:station:wmo:42369:3,2020-11-03T18:00:00Z,27.2079,-90.2900,459.3,63.5,11144222
BP,ioos:station:wmo:42369:3,2020-11-03T06:00:00Z,27.2121,-90.2878,458.4,64.1,11144222
BP,ioos:station:wmo:42369:3,2020-11-03T06:20:00Z,27.2119,-90.2880,457.3,64.1,11144222
BP,ioos:station:wmo:42369:3,2020-11-03T06:40:00Z,27.2116,-90.2884,457.0,64.1,11144222
BP,ioos:station:wmo:42369:3,2020-11-03T07:00:00Z,27.2114,-90.2887,457.3,64.1,11144222
BP,ioos:station:wmo:42369:3,2020-11-03T07:20:00Z,27.2113,-90.2889,457.5,64.1,11144222
BP,ioos:station:wmo:42369:3,2020-11-03T07:40:00Z,27.2111,-90.2892,458.4,64.1,11144222
BP,ioos:station:wmo:42369:3,2020-11-03T08:00:00Z,27.2108,-90.2895,457.6,64.1,11144222
BP,ioos:station:wmo:42369:3,2020-11-03T08:20:00Z,27.2106,-90.2896,457.5,64.1,11144222
BP,ioos:station:wmo:42369:3,2020-11-03T08:40:00Z,27.2104,-90.2897,457.5,64.1,11144222
BP,ioos:station:wmo:42369:3,2020-11-03T09:00:00Z,27.2102,-90.2899,457.1,64.1,11144222
BP,ioos:station:wmo:42369:3,2020-11-03T09:20:00Z,27.2100,-90.2900,457.7,64.1,11144222
BP,ioos:station:wmo:42369:3,2020-11-03T09:40:00Z,27.2098,-90.2901,455.8,64.1,11144222
BP,ioos:station:wmo:42369:3,2020-11-03T10:00:00Z,27.2096,-90.2901,455.1,64.1,11144222
BP,ioos:station:wmo:42369:3,2020-11-03T10:20:00Z,27.2094,-90.2902,455.1,64.1,11144222
BP,ioos:station:wmo:42369:3,2020-11-03T10:40:00Z,27.2091,-90.2904,454.3,64.1,11144222
BP,ioos:station:wmo:42369:3,2020-11-03T11:00:00Z,27.2089,-90.2905,455.1,64.1,11144222
BP,ioos:station:wmo:42369:3,2020-11-03T11:20:00Z,27.2085,-90.2906,454.2,64.1,11144222
BP,ioos:station:wmo:42369:3,2020-11-03T14:20:00Z,27.2072,-90.2903,457.4,64.1,11144222
BP,ioos:station:wmo:42369:3,2020-11-03T14:40:00Z,27.2074,-90.2902,458.0,64.2,11144222
BP,ioos:station:wmo:42369:3,2020-11-03T15:20:00Z,27.2077,-90.2902,458.3,64.3,11144222
BP,ioos:station:wmo:42369:3,2020-11-03T15:40:00Z,27.2077,-90.2901,457.6,64.3,11144222
BP,ioos:station:wmo:42369:3,2020-11-03T16:00:00Z,27.2077,-90.2900,458.6,64.3,11144222
BP,ioos:station:wmo:42369:3,2020-11-03T16:20:00Z,27.2078,-90.2900,459.8,64.3,11144222
BP,ioos:station:wmo:42369:3,2020-11-03T16:40:00Z,27.2078,-90.2900,460.8,62.9,11144222
BP,ioos:station:wmo:42369:3,2020-11-03T17:00:00Z,27.2078,-90.2899,460.2,62.5,11144222
BP,ioos:station:wmo:42369:3,2020-11-03T17:20:00Z,27.2079,-90.2900,459.8,62.5,11144222
BP,ioos:station:wmo:42369:3,2020-11-03T17:40:00Z,27.2079,-90.2900,458.5,62.7,11144222
BP,ioos:station:wmo:42369:3,2020-11-03T21:20:00Z,27.2092,-90.2893,458.0,63.8,11144222
BP,ioos:station:wmo:42369:3,2020-11-03T18:20:00Z,27.2080,-90.2901,459.7,63.7,11144222
BP,ioos:station:wmo:42369:3,2020-11-03T18:40:00Z,27.2081,-90.2901,459.7,63.7,11144222
BP,ioos:station:wmo:42369:3,2020-11-03T19:00:00Z,27.2083,-90.2901,460.6,63.7,11144222
BP,ioos:station:wmo:42369:3,2020-11-03T19:20:00Z,27.2084,-90.2900,459.7,63.7,11144222
BP,ioos:station:wmo:42369:3,2020-11-03T19:40:00Z,27.2085,-90.2900,460.5,63.7,11144222
BP,ioos:station:wmo:42369:3,2020-11-03T20:00:00Z,27.2086,-90.2898,460.1,63.8,11144222
BP,ioos:station:wmo:42369:3,2020-11-03T20:20:00Z,27.2088,-90.2897,458.8,63.8,11144222
BP,ioos:station:wmo:42369:3,2020-11-03T20:40:00Z,27.2089,-90.2895,459.6,63.8,11144222
BP,ioos:station:wmo:42369:3,2020-11-03T21:00:00Z,27.2090,-90.2893,459.0,63.8,11144222
BP,ioos:station:wmo:42369:3,2020-11-04T00:20:00Z,27.2097,-90.2890,454.5,63.8,11144222
BP,ioos:station:wmo:42369:3,2020-11-03T21:40:00Z,27.2092,-90.2893,458.6,63.8,11144222
BP,ioos:station:wmo:42369:3,2020-11-03T22:00:00Z,27.2093,-90.2893,457.7,63.8,11144222
BP,ioos:station:wmo:42369:3,2020-11-03T22:20:00Z,27.2094,-90.2892,457.4,63.8,11144222
BP,ioos:station:wmo:42369:3,2020-11-03T22:40:00Z,27.2095,-90.2892,458.7,63.8,11144222
BP,ioos:station:wmo:42369:3,2020-11-03T23:00:00Z,27.2096,-90.2891,457.2,63.8,11144222
BP,ioos:station:wmo:42369:3,2020-11-03T23:20:00Z,27.2096,-90.2891,456.9,63.8,11144222
BP,ioos:station:wmo:42369:3,2020-11-03T23:40:00Z,27.2097,-90.2890,457.0,63.8,11144222
BP,ioos:station:wmo:42369:3,2020-11-04T00:00:00Z,27.2097,-90.2890,455.3,63.8,11144222
BP,ioos:station:wmo:42369:3,2020-11-04T00:40:00Z,27.2098,-90.2890,454.5,63.8,11144222
BP,ioos:station:wmo:42369:3,2020-11-04T01:00:00Z,27.2099,-90.2889,454.5,63.8,11144222
BP,ioos:station:wmo:42369:3,2020-11-04T01:20:00Z,27.2099,-90.2889,453.3,63.7,11144222
BP,ioos:station:wmo:42369:3,2020-11-04T01:40:00Z,27.2100,-90.2889,453.8,63.7,11144222
BP,ioos:station:wmo:42369:3,2020-11-04T02:00:00Z,27.2101,-90.2888,453.5,63.7,11144222
BP,ioos:station:wmo:42369:3,2020-11-04T02:20:00Z,27.2101,-90.2887,452.1,63.7,11144222
BP,ioos:station:wmo:42369:3,2020-11-04T02:40:00Z,27.2102,-90.2886,450.7,63.7,11144222
BP,ioos:station:wmo:42369:3,2020-11-04T03:00:00Z,27.2103,-90.2885,451.0,63.7,11144222
BP,ioos:station:wmo:42369:3,2020-11-04T03:20:00Z,27.2104,-90.2883,451.2,63.7,11144222
BP,ioos:station:wmo:42369:3,2020-11-04T03:40:00Z,27.2105,-90.2882,451.2,63.7,11144222
BP,ioos:station:wmo:42369:3,2020-11-04T04:00:00Z,27.2106,-90.2880,450.0,63.7,11144222
BP,ioos:station:wmo:42369:3,2020-11-04T04:20:00Z,27.2106,-90.2879,450.5,63.7,11144222
BP,ioos:station:wmo:42369:3,2020-11-04T04:40:00Z,27.2106,-90.2878,450.2,63.7,11144222
BP,ioos:station:wmo:42369:3,2020-11-04T05:00:00Z,27.2107,-90.2877,449.6,63.7,11144222
BP,ioos:station:wmo:42369:3,2020-11-04T05:20:00Z,27.2107,-90.2876,448.6,63.7,11144222
BP,ioos:station:wmo:42369:3,2020-11-04T05:40:00Z,27.2107,-90.2876,448.6,63.7,11144222
BP,ioos:station:wmo:42369:3,2020-11-04T06:00:00Z,27.2106,-90.2877,449.1,63.7,11144222
BP,ioos:station:wmo:42369:3,2020-11-04T06:20:00Z,27.2107,-90.2877,449.1,63.7,11144222
BP,ioos:station:wmo:42369:3,2020-11-04T06:40:00Z,27.2107,-90.2877,449.1,63.6,11144222
BP,ioos:station:wmo:42369:3,2020-11-04T07:00:00Z,27.2107,-90.2878,450.1,63.7,11144222
BP,ioos:station:wmo:42369:3,2020-11-04T07:20:00Z,27.2108,-90.2878,449.7,63.6,11144222
BP,ioos:station:wmo:42369:3,2020-11-04T07:40:00Z,27.2109,-90.2878,450.7,63.7,11144222
BP,ioos:station:wmo:42369:3,2020-11-04T08:00:00Z,27.2109,-90.2878,451.2,63.6,11144222
BP,ioos:station:wmo:42369:3,2020-11-04T08:20:00Z,27.2109,-90.2878,450.6,63.7,11144222
BP,ioos:station:wmo:42369:3,2020-11-04T08:40:00Z,27.2110,-90.2877,451.4,63.7,11144222
BP,ioos:station:wmo:42369:3,2020-11-04T09:00:00Z,27.2110,-90.2876,450.9,63.7,11144222
BP,ioos:station:wmo:42369:3,2020-11-04T09:20:00Z,27.2111,-90.2874,452.0,63.7,11144222
BP,ioos:station:wmo:42369:3,2020-11-04T09:40:00Z,27.2111,-90.2873,451.1,63.7,11144222
BP,ioos:station:wmo:42369:3,2020-11-04T10:00:00Z,27.2112,-90.2872,451.5,63.7,11144222
BP,ioos:station:wmo:42369:3,2020-11-04T10:20:00Z,27.2112,-90.2870,452.0,63.7,11144222
BP,ioos:station:wmo:42369:3,2020-11-04T10:40:00Z,27.2112,-90.2869,452.4,63.7,11144222
BP,ioos:station:wmo:42369:3,2020-11-04T11:00:00Z,27.2112,-90.2868,452.2,63.7,11144222
BP,ioos:station:wmo:42369:3,2020-11-04T11:20:00Z,27.2112,-90.2867,452.1,63.8,11144222
BP,ioos:station:wmo:42369:3,2020-11-04T11:40:00Z,27.2112,-90.2867,451.2,63.7,11144222
BP,ioos:station:wmo:42369:3,2020-11-04T12:00:00Z,27.2111,-90.2868,451.9,63.8,11144222
BP,ioos:station:wmo:42369:3,2020-11-04T12:20:00Z,27.2111,-90.2868,452.4,63.8,11144222
BP,ioos:station:wmo:42369:3,2020-11-04T12:40:00Z,27.2109,-90.2870,451.5,63.7,11144222
BP,ioos:station:wmo:42369:3,2020-11-04T13:00:00Z,27.2109,-90.2870,451.3,63.7,11144222
BP,ioos:station:wmo:42369:3,2020-11-04T13:20:00Z,27.2105,-90.2876,451.8,63.7,11144222
BP,ioos:station:wmo:42369:3,2020-11-04T13:40:00Z,27.2104,-90.2879,451.5,63.7,11144222
BP,ioos:station:wmo:42369:3,2020-11-04T14:00:00Z,27.2102,-90.2882,451.2,63.7,11144222
BP,ioos:station:wmo:42369:3,2020-11-04T14:20:00Z,27.2099,-90.2887,452.8,63.7,11144222
BP,ioos:station:wmo:42369:3,2020-11-04T14:40:00Z,27.2094,-90.2892,452.1,63.8,11144222
BP,ioos:station:wmo:42369:3,2020-11-04T15:00:00Z,27.2087,-90.2897,452.2,63.8,11144222
BP,ioos:station:wmo:42369:3,2020-11-04T15:20:00Z,27.2077,-90.2903,452.3,63.9,11144222
BP,ioos:station:wmo:42369:3,2020-11-04T15:40:00Z,27.2067,-90.2905,452.7,64.0,11144222
BP,ioos:station:wmo:42369:3,2020-11-04T16:00:00Z,27.2059,-90.2905,453.1,64.0,11144222
BP,ioos:station:wmo:42369:3,2020-11-04T16:20:00Z,27.2054,-90.2902,454.6,64.0,11144222
BP,ioos:station:wmo:42369:3,2020-11-04T16:40:00Z,27.2052,-90.2900,455.3,64.0,11144222
BP,ioos:station:wmo:42369:3,2020-11-04T18:00:00Z,27.2056,-90.2900,456.2,63.9,11144222
BP,ioos:station:wmo:42369:3,2020-11-04T21:00:00Z,27.2058,-90.2905,455.6,63.9,11144222
BP,ioos:station:wmo:42369:3,2020-11-04T17:00:00Z,27.2053,-90.2900,456.7,63.9,11144222
BP,ioos:station:wmo:42369:3,2020-11-04T17:20:00Z,27.2054,-90.2899,456.0,63.9,11144222
BP,ioos:station:wmo:42369:3,2020-11-04T17:40:00Z,27.2055,-90.2899,455.9,64.0,11144222
BP,ioos:station:wmo:42369:3,2020-11-04T18:20:00Z,27.2056,-90.2900,456.2,64.0,11144222
BP,ioos:station:wmo:42369:3,2020-11-04T18:40:00Z,27.2057,-90.2901,455.6,63.9,11144222
BP,ioos:station:wmo:42369:3,2020-11-04T19:00:00Z,27.2057,-90.2902,457.0,63.9,11144222